Tracking 22779 objects as of 14-Apr-2021
HD Live streaming from Space Station
objects crossing your sky now

QUETZAL-1

Track QUETZAL-1 now!
10-day predictions
QUETZAL-1 is classified as:


NORAD ID: 45598
Int'l Code: 1998-067RL
Perigee: 400.9 km
Apogee: 403.9 km
Inclination: 51.6 °
Period: 92.5 minutes
Semi major axis: 6773 km
RCS: Unknown
Launch date: November 20, 1998
Source: (TBD)
Launch site: TYURATAM MISSILE AND SPACE COMPLEX (TTMTR)

Uplink (MHz):
Downlink (MHz): 437.200
Beacon (MHz):
Mode: 4800bps GMSK
Call sign:
Status: Inactive

aabbcc
Your satellite tracking list
Your tracking list is empty




NASA's NSSDC Master Catalog

Two Line Element Set (TLE):
1 45598U 98067RL  21102.91330959  .00016428  00000-0  22642-3 0  9996
2 45598  51.6394 296.4797 0002242 126.6844 233.4354 15.57363603 54334
Source of the keplerian elements: AFSPC